Hourly Weather Abadia

Today, 31 October, Saturday

Time Temperature Precipitation Wind Pressure Humidity
00:00 +14°C° 0 mm 1 mps 727 mmHg 69%
01:00 +14°C° 0 mm 1 mps 727 mmHg 70%
02:00 +14°C° 0 mm 1 mps 727 mmHg 70%
03:00 +14°C° 0 mm 1 mps 727 mmHg 71%
04:00 +13°C° 0 mm 1 mps 727 mmHg 72%
05:00 +12°C° 0 mm 0 mps 727 mmHg 72%
06:00 +12°C° 0 mm 0 mps 727 mmHg 72%
07:00 +14°C° 0 mm 0 mps 728 mmHg 69%
08:00 +15°C° 0 mm 0 mps 728 mmHg 65%
09:00 +17°C° 0 mm 0 mps 729 mmHg 61%
10:00 +20°C° 0 mm 1 mps 729 mmHg 56%
11:00 +22°C° 0 mm 1 mps 729 mmHg 51%
12:00 +23°C° 0 mm 1 mps 729 mmHg 46%
13:00 +23°C° 0 mm 1 mps 728 mmHg 47%
14:00 +24°C° 0 mm 1 mps 728 mmHg 48%
15:00 +24°C° 0 mm 1 mps 727 mmHg 49%
16:00 +22°C° 0 mm 1 mps 727 mmHg 58%
17:00 +20°C° 0 mm 1 mps 727 mmHg 66%
18:00 +18°C° 0 mm 1 mps 727 mmHg 75%
19:00 +16°C° 0 mm 1 mps 727 mmHg 76%
20:00 +16°C° 0 mm 1 mps 728 mmHg 78%
21:00 +15°C° 0 mm 1 mps 728 mmHg 79%
22:00 +15°C° 0 mm 1 mps 728 mmHg 79%
23:00 +15°C° 0 mm 1 mps 728 mmHg 79%

Tomorrow, 1 November, Sunday

Time Temperature Precipitation Wind Pressure Humidity
00:00 +15°C° 0 mm 1 mps 728 mmHg 79%
01:00 +14°C° 0 mm 0 mps 728 mmHg 79%
02:00 +13°C° 0 mm 0 mps 727 mmHg 79%
03:00 +13°C° 0 mm 0 mps 727 mmHg 79%
04:00 +13°C° 0 mm 0 mps 727 mmHg 80%
05:00 +13°C° 0 mm 0 mps 727 mmHg 80%
06:00 +13°C° 0 mm 0 mps 727 mmHg 80%
07:00 +14°C° 0 mm 0 mps 728 mmHg 76%
08:00 +15°C° 0 mm 0 mps 728 mmHg 73%
09:00 +17°C° 0 mm 0 mps 728 mmHg 69%
10:00 +18°C° 0 mm 0 mps 728 mmHg 65%
11:00 +21°C° 0 mm 1 mps 728 mmHg 61%
12:00 +23°C° 0 mm 1 mps 728 mmHg 56%
13:00 +23°C° 0 mm 1 mps 728 mmHg 56%
14:00 +23°C° 0 mm 1 mps 727 mmHg 56%
15:00 +23°C° 0 mm 1 mps 727 mmHg 56%
16:00 +21°C° 0 mm 1 mps 727 mmHg 64%
17:00 +17°C° 0 mm 0 mps 726 mmHg 71%
18:00 +16°C° 0 mm 0 mps 726 mmHg 79%
19:00 +15°C° 0 mm 0 mps 726 mmHg 79%
20:00 +15°C° 0 mm 0 mps 726 mmHg 78%
21:00 +15°C° 0 mm 0 mps 727 mmHg 78%
22:00 +15°C° 0 mm 0 mps 726 mmHg 78%
23:00 +15°C° 0 mm 0 mps 726 mmHg 77%

Day after tomorrow, 2 November, Monday

Time Temperature Precipitation Wind Pressure Humidity
00:00 +14°C° 0 mm 0 mps 726 mmHg 76%
01:00 +14°C° 0 mm 0 mps 726 mmHg 77%
02:00 +14°C° 0 mm 0 mps 726 mmHg 78%
03:00 +14°C° 0 mm 0 mps 726 mmHg 78%
04:00 +13°C° 0 mm 0 mps 726 mmHg 79%
05:00 +13°C° 0 mm 0 mps 726 mmHg 80%
06:00 +13°C° 0 mm 0 mps 726 mmHg 81%
07:00 +14°C° 0 mm 0 mps 726 mmHg 78%
08:00 +16°C° 0 mm 0 mps 726 mmHg 75%
09:00 +17°C° 0 mm 0 mps 727 mmHg 72%
10:00 +18°C° 0 mm 0 mps 727 mmHg 69%
11:00 +21°C° 0 mm 1 mps 727 mmHg 67%
12:00 +22°C° 0 mm 1 mps 726 mmHg 64%
13:00 +22°C° 0 mm 1 mps 726 mmHg 64%
14:00 +23°C° 0 mm 1 mps 726 mmHg 64%
15:00 +23°C° 0 mm 1 mps 726 mmHg 64%
16:00 +21°C° 0 mm 1 mps 726 mmHg 70%
17:00 +20°C° 0 mm 1 mps 726 mmHg 76%
18:00 +19°C° 0 mm 1 mps 726 mmHg 82%
19:00 +18°C° 0 mm 1 mps 726 mmHg 83%
20:00 +18°C° 0 mm 1 mps 726 mmHg 84%
21:00 +18°C° 0 mm 1 mps 727 mmHg 85%
22:00 +18°C° 0 mm 1 mps 727 mmHg 86%
23:00 +17°C° 0 mm 2 mps 727 mmHg 88%

3 November, Tuesday

Time Temperature Precipitation Wind Pressure Humidity
00:00 +16°C° 0 mm 2 mps 727 mmHg 90%
01:00 +16°C° 0 mm 2 mps 727 mmHg 89%
02:00 +16°C° 0 mm 2 mps 727 mmHg 88%
03:00 +16°C° 0 mm 2 mps 727 mmHg 88%
04:00 +15°C° 0 mm 2 mps 727 mmHg 87%
05:00 +14°C° 0 mm 3 mps 727 mmHg 86%
06:00 +13°C° 0 mm 3 mps 727 mmHg 86%
07:00 +14°C° 0 mm 3 mps 728 mmHg 82%
08:00 +14°C° 0 mm 3 mps 728 mmHg 79%
09:00 +15°C° 0 mm 4 mps 728 mmHg 76%
10:00 +17°C° 0 mm 4 mps 728 mmHg 72%
11:00 +18°C° 0 mm 4 mps 728 mmHg 69%
12:00 +19°C° 0 mm 4 mps 728 mmHg 65%
13:00 +19°C° 0.1 mm 4 mps 728 mmHg 65%
14:00 +19°C° 0.1 mm 4 mps 728 mmHg 64%
15:00 +18°C° 0.1 mm 4 mps 727 mmHg 63%
16:00 +17°C° 0.1 mm 4 mps 727 mmHg 65%
17:00 +15°C° 0.1 mm 4 mps 728 mmHg 67%
18:00 +14°C° 0.1 mm 3 mps 728 mmHg 68%
19:00 +14°C° 0 mm 3 mps 728 mmHg 69%
20:00 +13°C° 0 mm 3 mps 728 mmHg 69%
21:00 +12°C° 0 mm 3 mps 729 mmHg 69%
22:00 +12°C° 0 mm 3 mps 729 mmHg 70%
23:00 +11°C° 0 mm 3 mps 728 mmHg 72%

4 November, Wednesday

Time Temperature Precipitation Wind Pressure Humidity
00:00 +12°C° 0 mm 2 mps 728 mmHg 73%
01:00 +12°C° 0 mm 2 mps 728 mmHg 74%
02:00 +10°C° 0 mm 2 mps 728 mmHg 74%
03:00 +10°C° 0 mm 2 mps 727 mmHg 75%
04:00 +10°C° 0 mm 2 mps 727 mmHg 75%
05:00 +10°C° 0 mm 2 mps 727 mmHg 75%
06:00 +9°C° 0 mm 3 mps 727 mmHg 75%
07:00 +10°C° 0 mm 3 mps 727 mmHg 73%
08:00 +10°C° 0 mm 3 mps 726 mmHg 72%
09:00 +10°C° 0 mm 3 mps 726 mmHg 71%
10:00 +11°C° 0 mm 3 mps 725 mmHg 67%
11:00 +12°C° 0 mm 3 mps 725 mmHg 62%
12:00 +13°C° 0 mm 3 mps 724 mmHg 58%
13:00 +13°C° 0 mm 3 mps 723 mmHg 57%
14:00 +13°C° 0 mm 4 mps 723 mmHg 56%
15:00 +13°C° 0 mm 4 mps 722 mmHg 55%
16:00 +12°C° 0 mm 5 mps 721 mmHg 56%
17:00 +10°C° 0 mm 5 mps 721 mmHg 58%
18:00 +9°C° 0 mm 5 mps 720 mmHg 60%
19:00 +8°C° 0 mm 5 mps 720 mmHg 61%
20:00 +8°C° 0 mm 4 mps 720 mmHg 63%
21:00 +7°C° 0 mm 4 mps 720 mmHg 64%
22:00 +7°C° 0 mm 4 mps 719 mmHg 66%
23:00 +7°C° 0 mm 4 mps 718 mmHg 67%

5 November, Thursday

Time Temperature Precipitation Wind Pressure Humidity
00:00 +7°C° 0 mm 4 mps 718 mmHg 69%
01:00 +7°C° 0 mm 4 mps 717 mmHg 71%
02:00 +7°C° 0 mm 4 mps 717 mmHg 74%
03:00 +7°C° 0 mm 3 mps 716 mmHg 76%
04:00 +8°C° 0.4 mm 3 mps 715 mmHg 79%
05:00 +8°C° 0.4 mm 3 mps 715 mmHg 82%
06:00 +8°C° 0.4 mm 3 mps 714 mmHg 85%
07:00 +8°C° 0.4 mm 3 mps 714 mmHg 84%
08:00 +9°C° 0.4 mm 3 mps 714 mmHg 83%
09:00 +10°C° 0.4 mm 4 mps 714 mmHg 82%
10:00 +11°C° 0.6 mm 4 mps 714 mmHg 80%
11:00 +12°C° 0.6 mm 4 mps 714 mmHg 77%
12:00 +13°C° 0.6 mm 4 mps 713 mmHg 75%
13:00 +14°C° 0.4 mm 4 mps 713 mmHg 75%
14:00 +14°C° 0.4 mm 5 mps 714 mmHg 76%
15:00 +14°C° 0.4 mm 5 mps 714 mmHg 76%
16:00 +14°C° 0.7 mm 4 mps 714 mmHg 80%
17:00 +13°C° 0.7 mm 4 mps 715 mmHg 85%
18:00 +12°C° 0.7 mm 3 mps 715 mmHg 89%
19:00 +12°C° 0.3 mm 3 mps 716 mmHg 89%
20:00 +13°C° 0.3 mm 2 mps 716 mmHg 90%
21:00 +12°C° 0.3 mm 2 mps 717 mmHg 91%
22:00 +12°C° 1 mm 2 mps 717 mmHg 92%
23:00 +12°C° 1 mm 2 mps 717 mmHg 93%
Show more